This is the latest recevied weather packets stored in our database for station/object KQ4PPF. If no packets are shown the sender has not sent any weather packets the latest 10 day(s).
| Time | Temp. | Humidity | Pressure | Rain* | Wind** | Luminosity | Snow |
|---|---|---|---|---|---|---|---|
| 1788471752 | 32.78° C | 60% | 1014.3 hPa | 0 mm | - | 15 W/m² | - |
| 1788471446 | 33.33° C | 60% | 1014.3 hPa | 0 mm | - | 21 W/m² | - |
| 1788471142 | 33.89° C | 59% | 1014.3 hPa | 0 mm | - | 15 W/m² | - |
| 1788470832 | 33.89° C | 56% | 1014.2 hPa | 0 mm | - | 14 W/m² | - |
| 1788470528 | 33.89° C | 56% | 1014.2 hPa | 0 mm | - | 25 W/m² | - |
| 1788470221 | 33.89° C | 54% | 1014.2 hPa | 0 mm | - | 26 W/m² | - |
| 1788469918 | 34.44° C | 56% | 1014.4 hPa | 0 mm | - | 38 W/m² | - |
| 1788469614 | 34.44° C | 54% | 1014.7 hPa | 0 mm | - | 28 W/m² | - |
| 1788469309 | 33.89° C | 58% | 1014.6 hPa | 0 mm | - | 29 W/m² | - |
| 1788469009 | 34.44° C | 55% | 1014.7 hPa | 0 mm | - | 34 W/m² | - |
| 1788468708 | 34.44° C | 55% | 1014.6 hPa | 0 mm | - | 35 W/m² | - |
| 1788468404 | 34.44° C | 54% | 1015 hPa | 0 mm | - | 38 W/m² | - |
| 1788450335 | 35° C | 62% | 1018.1 hPa | 0 mm | - | 576 W/m² | - |
| 1788450031 | 35° C | 62% | 1018.1 hPa | 0 mm | - | 576 W/m² | - |
| 1788449726 | 34.44° C | 62% | 1018.1 hPa | 0 mm | - | 590 W/m² | - |
| 1788449422 | 34.44° C | 63% | 1018.1 hPa | 0 mm | - | 652 W/m² | - |
| 1788449119 | 32.78° C | 65% | 1017.9 hPa | 0 mm | - | 623 W/m² | - |
| 1788448815 | 33.89° C | 64% | 1017.9 hPa | 0 mm | - | 641 W/m² | - |
| 1788448514 | 33.89° C | 65% | 1018 hPa | 0 mm | - | 637 W/m² | - |
| 1788448209 | 33.33° C | 64% | 1018 hPa | 0 mm | - | 601 W/m² | - |
| 1788447909 | 33.33° C | 63% | 1018.1 hPa | 0 mm | - | 293 W/m² | - |
| 1788447604 | 33.89° C | 66% | 1018 hPa | 0 mm | - | 119 W/m² | - |
| 1788447298 | 31.67° C | 70% | 1017.9 hPa | 0 mm | - | 145 W/m² | - |
| 1788446994 | 32.22° C | 68% | 1018 hPa | 0 mm | - | 616 W/m² | - |
| 1788446693 | 32.78° C | 67% | 1018.1 hPa | 0 mm | - | 603 W/m² | - |
* Rain latest hour (hover to see other rain measurements)
** Current wind speed in m/s (hover to see current wind gust speed)